Location: La Brionne
(46.1728°N, 1.7849°E)
Time: 08:17:06
(UTC+00:00)

Cosmos 1727 Rocket - Pass Details

Date: 16 June 2021
Orbit: 960 x 997 km, 82.9° (Epoch: 02 August)

Event Time Altitude Azimuth Distance (km) Brightness Sun altitude
Rises 20:25:51 0° 170° (S) 3,697 6.5 -6.0°
Reaches altitude 10° 20:28:26 10° 166° (SSE) 2,749 5.9 -6.4°
Maximum altitude 20:34:31 53° 91° (E) 1,206 4.3 -7.1°
Drops below altitude 10° 20:40:35 10° 17° (NNE) 2,745 6.8 -7.9°
Sets 20:43:09 0° 13° (NNE) 3,692 7.5 -8.2°
